Weather History for Mt. Pocono, PA

Change the Weather History Date:

Tuesday, February 21, 2012

  Actual Average Record
Temperature  
Mean Temperature 27 °F 27 °F  
Max Temperature 41 °F 35 °F 60 °F (1930)
Min Temperature 13 °F 19 °F -8 °F (1993)
Degree Days  
Heating Degree Days 38 38  
Month to date heating degree days 731 833  
Since 1 July heating degree days 4055 4864  
Cooling Degree Days 0 0  
Month to date cooling degree days 0 0  
Year to date cooling degree days 0 0  
Moisture  
Dew Point 18 °F    
Average Humidity 62    
Maximum Humidity 80    
Minimum Humidity 44    
Precipitation  
Precipitation 0.00 in 0.09 in 1.55 in (1954)
Month to date precipitation 0.43 1.74  
Year to date precipitation 3.65 4.59  
Sea Level Pressure  
Sea Level Pressure 30.13 in    
Wind  
Wind Speed 9 mph (South)    
Max Wind Speed 22 mph    
Max Gust Speed 29 mph    
Visibility 10 miles    
Events      
T = Trace of Precipitation, MM = Missing Value Source: NWS Daily Summary

Daily Weather History Graph

Daily Weather History Graph

Search for Another Location

Airport:

Trip Planner

Search our weather history database for the weather conditions in past years. The results will help you decide how hot, cold, wet, or windy it might be!

Date:

Astronomy

Feb. 21, 2012 Rise Set
Actual Time 6:48 AM EST 5:42 PM EST
Civil Twilight 6:20 AM EST 6:10 PM EST
Nautical Twilight 5:48 AM EST 6:42 PM EST
Astronomical Twilight 5:16 AM EST 7:14 PM EST
Moon 6:15 AM EST (2/21) 5:47 PM EST (2/21)
Length of Visible Light 11h 49m
Length of Day
10h 53m
Waning Crescent, 0% of the Moon is Illuminated
Feb 21
Waning Crescent
Feb 21
New
Feb 29
First Quarter
Mar 8
Full
Mar 14
Last Quarter

Hourly Weather History & Observations

Time (EST) Temp. Windchill Dew Point Humidity Pressure Visibility Wind Dir Wind Speed Gust Speed Precip Events Conditions
12:53 AM 17.1 °F 11.7 °F 10.0 °F 74% 30.35 in 10.0 mi West 3.5 mph - N/A   Clear
1:53 AM 17.1 °F 11.7 °F 9.0 °F 71% 30.32 in 10.0 mi NE 3.5 mph - N/A   Clear
2:53 AM 14.0 °F - 8.1 °F 77% 30.31 in 10.0 mi Calm Calm - N/A   Clear
3:53 AM 15.1 °F - 10.0 °F 80% 30.31 in 10.0 mi Calm Calm - N/A   Clear
4:53 AM 19.9 °F 12.1 °F 12.0 °F 71% 30.30 in 10.0 mi ESE 5.8 mph - N/A   Clear
5:53 AM 21.9 °F 14.5 °F 12.0 °F 66% 30.27 in 10.0 mi ESE 5.8 mph - N/A   Clear
6:53 AM 23.0 °F 14.7 °F 10.9 °F 60% 30.27 in 10.0 mi SE 6.9 mph - N/A   Clear
7:53 AM 25.0 °F 19.3 °F 12.9 °F 60% 30.28 in 10.0 mi SE 4.6 mph - N/A   Clear
8:53 AM 28.0 °F 18.6 °F 16.0 °F 61% 30.27 in 10.0 mi SSE 10.4 mph - N/A   Clear
9:53 AM 32.0 °F 24.2 °F 18.0 °F 56% 30.26 in 10.0 mi South 9.2 mph - N/A   Clear
10:53 AM 34.0 °F 23.0 °F 19.0 °F 54% 30.22 in 10.0 mi SSE 18.4 mph 23.0 mph N/A   Clear
11:53 AM 35.1 °F 27.4 °F 19.9 °F 54% 30.18 in 10.0 mi SSE 10.4 mph 20.7 mph N/A   Clear
12:53 PM 37.0 °F 29.8 °F 21.0 °F 52% 30.13 in 10.0 mi South 10.4 mph 19.6 mph N/A   Clear
1:53 PM 37.9 °F 29.2 °F 21.0 °F 51% 30.06 in 10.0 mi SSE 15.0 mph 25.3 mph N/A   Clear
2:53 PM 39.0 °F 30.3 °F 21.0 °F 49% 29.99 in 10.0 mi SSE 16.1 mph 26.5 mph N/A   Mostly Cloudy
3:53 PM 39.9 °F 31.4 °F 19.0 °F 43% 29.97 in 10.0 mi South 16.1 mph 26.5 mph N/A   Overcast
5:53 PM 37.0 °F 27.7 °F 24.1 °F 59% 29.94 in 10.0 mi South 16.1 mph - N/A   Overcast
7:53 PM 36.0 °F 28.5 °F 26.1 °F 67% 29.93 in 10.0 mi SW 10.4 mph 17.3 mph N/A   Mostly Cloudy
8:53 PM 36.0 °F 29.0 °F 27.0 °F 70% 29.92 in 10.0 mi SW 9.2 mph - N/A   Overcast
9:53 PM 36.0 °F 32.1 °F 27.0 °F 70% 29.89 in 10.0 mi SW 4.6 mph - N/A   Overcast
10:53 PM 36.0 °F 30.3 °F 26.1 °F 67% 29.87 in 10.0 mi SW 6.9 mph - N/A   Overcast
11:53 PM 36.0 °F 30.3 °F 27.0 °F 70% 29.84 in 10.0 mi SW 6.9 mph - N/A   Overcast